King Salmon, AK

7:00 AM AKDT on August 30, 2015 (GMT -0800)
King Salmon | | Change Station
CLOSE
Current Station
Airport
Location: King Salmon,
Elevation: 46 ft
Nearby Weather Stations

Elev 46 ft 58.68 °N, 156.66 °W | Updated 6 minutes ago

Partly Cloudy
Partly Cloudy
36 °F
Feels Like 31 °F
N
6
Wind Variable Wind from NW

Today
High -- | Low -- °F
--% Chance of Precip.
Yesterday
High -- | Low -- °F
Precip. -- in
7:20 AM 9:32 PM
Full, 99% visible
Pressure 29.64 in
Visibility 10.0 miles
Clouds Few 7000 ft
Windchill 31 °F
Dew Point 32 °F
Humidity 86%
Rainfall 0.00 in
Snow Depth Not available.
UV 0 out of 12
Pollen Not available.
Air Quality Not available.
Flu Activity Not available.
METAR PAKN 301454Z 31005KT 10SM FEW070 02/00 A2964 RMK AO2 SLP037 T00220000 51010
Pressure 29.64 in
Visibility 10.0 miles
Clouds Few 7000 ft
Windchill 31 °F
Dew Point 32 °F
Humidity 86%
Rainfall 0.00 in
Snow Depth Not available.
UV 0 out of 12
Pollen Not available.
Air Quality Not available.
Flu Activity Not available.
METAR PAKN 301454Z 31005KT 10SM FEW070 02/00 A2964 RMK AO2 SLP037 T00220000 51010

10-Day Weather Forecast

×

Almanac

Astronomy

Aug. 30, 2015 Rise Set
Actual Time
Civil Twilight
Nautical Twilight
Astronomical Twilight
Moon
Length of Visible Light
Length of Day
Tomorrow will be .
, % of the Moon is Illuminated

Today's Extremes

State Highs State Lows

Community

WunderPhotos

Upload Photos

1,850,984 photos uploaded!

WunderBlogs® & News

Nearby

Air Quality

  Air Quality AQ Index Pollutant
Not available.

Snow Depth

Station Depth Elevation

Earthquake Activity

City Distance Mag. Time & Date
Minimum magnitude displayed is 2.5.

Coastal Water Temperatures

Place Temperature

Stations

Nearby Weather Stations

Station Location Temp. Windchill Dew Point Humidity Wind Precip. Elev Updated Type